STARLINK-31376 (59524 NORAD) Tracking and Keplerian Element Data

This shows tracking and keplerian element data for the satellite.

Feedback or suggestion? Click here.




ElementValue
Catalog59524
NameSTARLINK-31376
Epoch Orbit795
Epoch Day159.92212272
Epoch Year2024
RAAN3.7944
Inclination43.0011
Eccentricity0.0001746
Argument of Perigee238.2931
Mean Anonmoly121.7756
Mean Motion15.40719792
Decay Rate6.949E-05
L11 59524U 24073P 24159.92212272 .00006949 00000+0 17334-3 0 9997
L22 59524 43.0011 3.7944 0001746 238.2931 121.7756 15.40719792 7954



Live tracking and technical data element details for STARLINK-31376 (NORAD 59524). STARLINK-31376 can be tracked NOW for your location showing map with azimuth and elevation plus other details from your city location.







IsCatalogInMostPopularTable: catalog: 59524, numindb: 12
Update: records affected: 1



GetName: 59524 STARLINK-31376

Hit Count: updated at: Fri, 14 Jun 2024 19:07:42 GMT